Погода в Фунафути

Тувалу     8°30′48″S   179°11′32″E
темп.,
°C
ветер,
м/с
пор.,
м/с
влажн.,
%
обл.,
%
осадки,
мм/ч
давл.,
гПа
погр.,
м
18 апреля, вс
вс1800:00+29всв557335 0.3 1009790
03:00+29всв457355 0.2 1008943
06:00+29всв55735 0.3 1009898
09:00+29всв45737 0.2 1011897
12:00+29всв44717 0.3 1009926
15:00+29в55716 0.2 1007943
18:00+29в557114 0.2 10081008
21:00+29в56726 0.0 10101014
19 апреля, пн
пн1900:00+29в67735 2.7 1009876
03:00+29вюв66735 2.1 1008975
06:00+29в667366 2.6 1009892
09:00+29в6673100 3.3 1011950
12:00+29в6672100 3.4 1010989
15:00+29в6674100 0.4 1008901
18:00+29в7774100 0.4 1009951
21:00+29в78744 0.0 10111059
20 апреля, вт
вт2000:00+29в89744 0.6 10101060
03:00+29вюв89724 1.3 10081072
06:00+29в787353 1.3 10101115
09:00+29в7875100 1.9 1011737
12:00+29в887453 5.8 10091089
15:00+29в7876100 5.1 1008677
18:00+29в7875100 7.3 1009869
21:00+30в7874100 0.9 10111064
21 апреля, ср
ср2100:00+29в7877100 3.9 1010730
03:00+29в7875100 3.9 1008857
06:00+29в6776100 4.6 1009890
09:00+29всв777679 2.1 1011871
12:00+29в6677100 6.6 1009500
15:00+29всв4475100 7.2 1007227
18:00+29св3472100 12.0 1009341
21:00+29всв4573100 2.1 1010518
22 апреля, чт
чт2200:00+27ссв9881100 7.1 1010718
03:00+27ссв9978100 3.9 1009917
06:00+27ссв4574100 4.1 1010727
09:00+28с4472100 0.0 1011750
12:00+28с447368 0.0 1009636
15:00+28с227032 0.5 1007619
18:00+28с1167100 1.2 1008671
21:00+28зсз0067100 0.0 1010659